1998-067SS

Last updated on Sat Apr 23 2022 00:03:22 GMT+0000 (Coordinated Universal Time)

1 49273U 98067SS 22111.87533747 .00110673 00000+0 10824-2 0 9990 2 49273 51.6368 247.0545 0001700 340.2649 19.8280 15.65295512 30821

Satellite not in orbit